Wetbulb
48.65 45.38 42.50 45.21 46.50 48.67 46.15 45.35 43.85 46.59 46.72 43.44 42.51 44.04 46.58 49.03 46.41 45.19 45.66 46.75 50.65 54.56 56.91 58.94 60.97 61.96 62.06 58.62 57.25 59.38 60.79 61.73 62.58 61.72 60.68 59.92 60.58 60.52 60.30 60.58 61.72 62.46 62.45 61.95
43.20 41.53 47.28 49.02 48.18 47.71 47.32 44.78 45.56 46.04 46.24 44.66 44.88 44.31 47.47 49.24 49.75 48.43 46.98 46.53 47.35 50.99 53.95 57.26 58.55 60.46 61.49 59.92 58.12 57.87 59.96 60.52 61.10 61.27 61.15 60.19 60.16 60.61 60.64 60.76 61.32 62.38 62.63 61.80
42.83 45.26 49.18 48.46 47.44 46.26 46.64 45.25 45.46 43.95 41.85 41.85 39.95 40.48 43.25 47.79 50.24 51.12 51.40 49.55 48.69 48.39 51.49 53.91 57.17 59.22 61.05 60.98 60.15 58.39 58.76 59.89 60.37 60.84 60.93 60.26 59.93 59.87 59.87 60.13 60.84 62.35 62.69 61.91
44.01 48.06 47.53 46.87 46.46 47.46 42.99 45.19 44.84 41.11 40.03 37.28 41.74 34.88 42.97 46.69 47.12 49.23 50.92 50.18 48.93 47.49 49.12 52.80 56.91 58.10 60.51 61.85 62.30 61.87 59.78 59.23 60.00 60.34 59.71 59.18 58.84 58.65 60.70 60.95 61.67 62.49 63.08 62.69
40.63 42.65 45.91 45.41 46.61 48.55 42.23 43.37 39.72 38.69 36.37 36.25 35.18 32.21 38.07 42.44 44.90 47.10 49.35 50.43 50.44 49.28 47.94 49.92 54.77 57.96 60.20 61.54 62.21 62.79 62.80 61.14 60.23 60.10 60.13 59.70 59.55 61.00 61.76 61.84 61.74 62.63 62.64 62.70
41.64 47.75 48.07 46.75 43.95 44.02 42.31 39.68 38.69 36.23 36.51 31.11 36.53 34.23 35.07 40.32 42.81 44.49 48.25 50.57 51.41 50.66 48.66 48.66 52.24 56.84 58.34 60.05 61.52 62.47 62.65 62.91 62.95 61.13 60.40 60.96 60.80 61.29 61.15 61.28 61.54 62.41 62.69 62.83
39.83 43.53 42.96 45.24 39.96 42.09 40.49 39.17 31.16 30.42 29.36 30.10 33.86 34.00 38.65 43.46 45.40 43.61 45.01 45.93 48.05 50.40 48.57 47.27 48.31 51.58 55.19 57.18 59.75 61.23 62.08 62.10 63.15 63.19 62.47 61.96 62.44 62.40 61.88 61.80 61.92 62.17 62.09 62.07
32.64 30.80 40.40 44.69 41.48 37.50 38.14 39.04 31.27 25.62 25.94 28.11 28.33 29.23 35.85 43.00 43.36 42.16 43.18 45.53 42.72 43.58 48.20 47.02 47.28 48.87 52.92 55.18 57.79 59.24 59.38 60.84 62.10 62.83 63.12 63.58 63.29 63.16 63.01 62.73 62.98 62.70 62.64 62.07
34.93 33.27 40.67 44.53 43.53 42.46 37.59 36.90 37.90 28.64 22.43 25.07 29.60 33.83 39.66 42.03 41.49 41.49 41.04 41.31 39.98 41.20 43.78 44.51 45.53 46.63 47.79 51.03 53.82 56.91 58.32 58.54 59.41 60.87 62.50 62.96 63.38 63.21 63.02 63.00 63.12 63.04 62.92 62.29
39.34 30.64 38.09 41.98 43.34 41.43 40.49 41.57 33.82 32.63 21.91 20.68 28.28 28.87 32.35 36.04 38.66 41.17 40.16 41.68 42.65 43.12 43.28 43.62 43.93 45.04 45.62 46.45 47.56 49.68 53.60 55.37 57.54 57.82 59.98 61.69 62.63 62.91 63.15 62.91 62.29 62.44 62.41 60.95
41.14 35.02 32.71 38.02 37.43 35.81 35.65 35.61 36.73 37.11 33.65 25.91 24.52 30.15 36.85 39.06 38.89 38.66 40.66 41.31 40.97 40.81 41.41 42.40 42.79 43.48 43.87 43.97 44.17 45.20 46.27 47.56 49.56 53.53 55.46 57.63 59.82 61.22 61.48 61.94 61.02 59.46 58.56 57.07
39.95 35.07 28.88 32.34 36.58 40.38 38.98 37.94 38.12 33.01 29.62 31.53 29.46 29.30 38.66 39.13 39.44 39.51 39.87 40.71 40.54 41.62 41.90 41.92 42.56 42.76 42.71 43.00 43.35 43.72 44.46 45.86 46.71 48.13 49.61 52.22 55.37 56.52 56.90 57.19 57.08 56.98 54.81 52.98
38.75 32.53 27.22 29.80 33.83 34.91 35.88 38.43 40.02 37.83 32.88 28.46 26.51 30.27 39.61 40.36 39.18 39.56 39.67 40.07 41.33 41.33 41.40 42.80 42.82 42.75 42.63 42.92 43.35 43.66 44.38 45.39 47.39 48.39 48.11 48.39 49.42 52.60 54.45 54.69 53.43 53.08 51.37 50.01
41.12 34.83 30.70 27.71 31.02 33.72 31.83 36.01 37.99 37.42 28.36 29.21 30.76 33.95 38.10 38.59 39.01 39.06 39.25 39.75 40.66 40.95 42.45 42.50 42.24 42.63 42.95 43.44 43.11 43.42 44.36 45.90 47.01 47.56 47.58 47.26 47.32 48.24 50.35 53.53 52.31 50.32 48.79 47.35
38.70 29.44 33.58 35.03 36.01 35.70 35.03 35.86 36.65 35.94 36.81 32.81 36.01 35.64 39.07 39.22 39.83 40.22 40.93 40.28 40.96 41.50 40.80 41.47 42.16 42.70 43.24 42.69 42.79 43.52 44.06 45.48 45.86 45.42 45.26 45.56 45.98 46.62 46.33 45.25 44.08 42.66 43.69 43.43
38.19 28.22 33.08 28.25 34.22 35.04 32.68 35.81 36.74 36.69 37.50 37.23 36.94 35.84 39.92 42.39 41.41 38.89 39.73 40.14 40.52 41.48 41.83 42.25 41.72 42.40 43.10 43.50 42.74 43.31 43.26 43.90 44.46 44.17 43.63 44.04 43.51 41.33 39.62 38.80 38.37 37.86 37.03 37.52
35.90 32.83 29.48 25.31 29.89 30.10 24.17 32.32 35.08 36.26 37.91 38.01 33.57 38.45 39.73 39.26 39.75 39.68 39.96 40.95 41.37 41.18 42.01 41.98 42.45 42.32 42.76 42.90 43.76 42.34 42.68 42.91 42.30 40.64 38.81 38.81 37.83 37.24 36.72 35.74 35.15 35.14 35.52 35.02
33.98 32.48 32.16 25.23 28.59 19.92 30.09 38.52 38.23 36.68 38.15 39.38 39.87 40.26 40.41 40.75 41.54 41.66 41.93 41.73 41.60 42.74 42.45 42.14 41.71 41.92 42.45 43.55 43.20 43.34 42.33 40.83 38.37 36.86 36.81 35.92 35.81 35.34 34.14 33.67 34.92 34.85 34.62 34.28
37.91 33.58 28.41 25.46 21.62 26.95 31.91 34.65 35.45 33.83 34.11 40.03 39.29 40.70 41.31 40.42 38.76 39.32 42.07 42.63 42.72 40.62 40.99 40.90 41.13 41.51 41.50 41.72 42.12 40.78 37.74 36.73 35.72 35.58 35.67 34.85 34.31 32.07 32.70 32.17 33.92 33.75 32.97 32.66
36.68 37.29 31.80 29.24 18.96 17.87 30.32 36.43 38.71 38.56 29.64 39.36 40.17 40.16 39.78 38.77 34.77 39.57 41.39 40.85 39.99 40.03 39.69 39.44 39.70 40.47 39.88 38.54 38.62 36.20 35.47 35.11 34.69 34.53 34.85 34.69 33.82 30.88 30.87 31.34 30.90 30.24 32.70 32.36
29.05 31.19 28.29 22.90 18.47 25.67 33.85 33.95 38.63 26.21 29.28 34.58 39.61 40.84 38.89 37.24 40.40 37.94 38.12 37.58 37.98 37.87 37.31 38.19 38.32 37.24 36.54 34.40 34.85 34.68 34.55 34.28 34.48 34.04 33.14 31.15 30.85 29.47 29.98 29.32 28.70 28.74 29.48 31.33
28.35 27.28 27.09 22.46 17.38 21.82 35.18 33.38 33.36 36.02 33.21 34.44 36.17 36.97 37.70 38.45 37.44 36.87 36.72 36.33 36.32 35.34 34.74 34.81 34.30 31.65 31.66 31.97 33.46 33.23 32.36 32.57 29.48 29.35 29.42 28.66 27.49 29.26 30.43 27.50 27.97 31.26 31.96 31.59
25.71 31.95 29.45 31.41 29.72 34.27 34.82 34.75 35.38 37.76 36.23 35.36 35.89 35.73 37.20 36.50 35.52 35.43 34.66 34.18 33.17 32.47 30.74 31.03 29.90 29.55 29.57 28.73 30.00 29.85 29.21 28.48 27.93 28.33 25.05 28.92 28.74 30.30 31.02 26.65 30.62 31.08 31.62 31.23
29.86 35.76 29.67 29.92 32.33 32.70 34.74 33.63 34.41 34.91 35.70 36.34 36.27 35.31 36.51 35.74 34.61 32.75 32.16 31.51 30.61 28.30 27.13 26.41 25.97 26.31 26.41 26.73 27.65 26.49 27.32 26.51 31.45 31.70 29.19 27.53 27.20 26.09 25.78 29.01 29.59 31.59 31.16 30.85
30.77 33.77 29.09 27.64 28.90 32.31 31.66 34.32 35.39 34.07 33.74 32.60 32.23 32.36 35.60 33.43 31.82 31.38 29.98 28.91 28.93 27.06 25.70 24.39 25.42 25.37 24.93 24.39 24.40 23.16 25.13 25.58 26.85 26.85 27.23 28.73 28.87 26.45 26.38 27.38 27.58 27.64 27.70 31.07
32.28 31.14 31.49 29.24 33.62 34.99 34.48 34.47 34.18 32.70 32.25 31.46 31.52 31.12 31.72 31.79 31.00 29.98 27.83 27.47 26.29 25.38 23.92 24.22 22.90 22.37 21.17 21.44 20.69 21.45 23.06 23.52 23.46 25.74 24.53 24.84 24.88 24.30 25.00 24.92 25.96 32.93 33.76 34.38
MSLP
1015.89 1015.70 1014.79 1014.99 1015.02 1014.21 1014.30 1014.16 1014.32 1014.49 1014.52 1015.01 1014.97 1014.60 1014.17 1013.69 1013.66 1013.91 1014.01 1013.85 1014.04 1014.35 1014.36 1015.12 1015.77 1016.54 1017.07 1017.55 1018.33 1018.73 1019.50 1020.17 1020.71 1021.16 1021.36 1021.60 1021.71 1022.01 1022.38 1022.43 1022.69 1023.04 1023.42 1023.84
1015.94 1014.44 1014.66 1014.81 1014.62 1014.59 1013.88 1013.72 1013.86 1014.21 1014.52 1014.90 1014.77 1014.17 1013.85 1013.36 1013.00 1013.20 1013.48 1013.45 1013.56 1013.62 1013.79 1014.36 1015.08 1016.06 1016.46 1016.91 1017.48 1018.25 1018.80 1019.36 1019.68 1020.25 1020.64 1020.87 1021.13 1021.76 1021.97 1021.98 1022.21 1022.40 1022.81 1023.25
1013.29 1013.36 1014.12 1014.27 1014.40 1014.52 1014.34 1013.55 1013.49 1014.27 1015.19 1015.34 1015.17 1014.24 1013.58 1012.62 1012.34 1012.47 1012.36 1012.38 1012.81 1013.14 1013.39 1013.94 1014.45 1015.41 1015.87 1016.38 1017.00 1017.56 1018.07 1018.48 1018.97 1019.30 1019.91 1020.38 1020.81 1021.18 1021.71 1021.82 1021.95 1021.94 1022.27 1022.74
1013.41 1013.50 1013.23 1013.85 1013.96 1013.85 1014.36 1014.14 1013.99 1014.83 1015.73 1015.89 1015.52 1014.08 1012.10 1011.44 1011.34 1011.43 1011.38 1011.57 1011.78 1012.16 1012.38 1012.78 1013.35 1014.34 1014.87 1015.22 1015.82 1016.44 1017.19 1017.63 1018.38 1018.98 1019.30 1019.52 1019.69 1020.08 1020.38 1020.90 1021.27 1021.49 1021.79 1022.27
1012.35 1012.36 1012.57 1013.03 1013.19 1014.19 1015.00 1014.47 1015.01 1015.71 1016.41 1016.65 1015.99 1015.34 1012.25 1011.02 1010.72 1010.58 1010.77 1011.09 1011.26 1011.58 1011.73 1012.01 1012.35 1012.89 1013.32 1014.44 1014.98 1015.43 1016.12 1016.85 1017.23 1017.95 1018.35 1018.79 1019.20 1019.45 1019.75 1020.16 1020.73 1021.09 1021.33 1021.70
1011.82 1012.33 1012.67 1012.71 1013.88 1014.88 1015.64 1015.75 1016.17 1016.89 1017.55 1017.53 1016.08 1015.43 1012.41 1011.24 1010.28 1010.10 1009.88 1010.16 1010.50 1011.00 1011.32 1011.45 1011.60 1012.25 1012.80 1013.46 1014.16 1014.77 1015.45 1015.77 1016.23 1016.73 1017.36 1017.87 1018.22 1018.79 1019.22 1019.34 1019.85 1020.25 1020.62 1020.72
1011.59 1012.27 1012.33 1012.76 1014.23 1015.61 1015.85 1015.23 1017.31 1018.26 1018.47 1016.98 1015.76 1015.18 1012.55 1010.90 1010.41 1010.32 1010.11 1009.98 1009.99 1010.09 1010.66 1011.14 1011.75 1011.94 1012.43 1013.02 1013.30 1013.95 1014.58 1014.95 1015.25 1015.67 1016.24 1016.70 1017.21 1017.72 1018.16 1018.44 1018.80 1019.22 1019.65 1019.74
1010.46 1012.43 1011.81 1012.52 1012.72 1014.11 1015.66 1014.73 1015.61 1016.97 1017.82 1016.93 1016.19 1014.28 1011.75 1010.60 1009.93 1009.79 1009.84 1009.62 1009.96 1010.29 1010.15 1010.52 1011.19 1011.62 1012.03 1012.65 1013.03 1013.61 1014.08 1014.29 1014.55 1014.89 1015.29 1015.63 1016.26 1016.63 1017.00 1017.34 1017.72 1018.13 1018.36 1018.66
1008.77 1010.95 1011.87 1012.52 1012.33 1013.02 1014.70 1014.78 1014.84 1015.97 1017.49 1017.14 1015.58 1013.58 1011.76 1010.30 1009.95 1009.67 1009.69 1009.69 1009.95 1010.24 1010.41 1010.73 1011.15 1011.70 1012.14 1012.71 1012.87 1013.08 1013.52 1013.89 1014.28 1014.30 1014.66 1015.03 1015.28 1015.66 1015.87 1016.16 1016.51 1016.95 1017.24 1017.66
1006.96 1010.50 1012.07 1012.58 1012.46 1013.00 1012.80 1013.78 1014.82 1015.41 1016.87 1016.79 1014.75 1013.31 1011.42 1010.42 1009.93 1009.53 1009.69 1009.82 1010.00 1010.14 1010.38 1010.78 1011.35 1011.82 1012.17 1012.37 1012.63 1013.16 1013.59 1013.83 1013.92 1014.07 1014.20 1014.21 1014.38 1014.74 1015.12 1015.47 1015.55 1015.81 1016.31 1016.70
1006.36 1009.36 1012.81 1012.86 1012.44 1012.21 1012.96 1013.15 1013.52 1014.17 1015.09 1015.15 1014.60 1012.41 1010.27 1009.81 1009.57 1009.46 1009.56 1009.79 1010.11 1010.57 1010.89 1011.20 1011.69 1012.00 1012.33 1012.44 1012.76 1013.07 1013.27 1013.56 1013.67 1013.89 1013.88 1013.96 1014.24 1014.47 1014.68 1015.03 1015.33 1015.53 1015.88 1016.18
1006.27 1008.85 1011.89 1012.57 1012.43 1012.25 1012.38 1012.55 1012.85 1013.73 1014.79 1014.70 1014.21 1012.13 1010.11 1009.49 1009.38 1009.48 1009.66 1009.98 1010.25 1010.61 1011.02 1011.44 1011.66 1011.92 1012.29 1012.72 1013.07 1013.30 1013.50 1013.62 1013.78 1013.87 1013.97 1014.10 1014.18 1014.33 1014.67 1014.76 1015.09 1015.70 1016.21 1016.60
1005.70 1008.59 1011.30 1013.40 1013.56 1012.72 1012.47 1012.33 1012.39 1013.07 1013.83 1013.94 1013.90 1011.31 1009.67 1009.33 1009.47 1009.48 1009.73 1009.90 1010.31 1010.66 1011.01 1011.32 1011.61 1012.04 1012.52 1012.89 1013.16 1013.28 1013.42 1013.56 1013.72 1013.88 1014.01 1014.22 1014.29 1014.47 1014.63 1014.82 1015.30 1015.60 1016.22 1016.72
1005.26 1007.45 1008.26 1008.83 1009.08 1010.49 1011.89 1012.26 1012.72 1013.25 1013.58 1013.19 1011.98 1010.63 1009.87 1009.49 1009.28 1009.27 1009.38 1009.65 1009.94 1010.29 1010.51 1010.88 1011.27 1011.75 1012.07 1012.50 1012.88 1013.11 1013.21 1013.21 1013.42 1013.43 1013.59 1013.95 1014.33 1014.31 1014.37 1014.80 1015.19 1015.71 1016.08 1016.56
1005.28 1007.13 1008.17 1008.91 1009.23 1009.95 1010.12 1010.65 1011.86 1012.35 1011.29 1011.92 1009.16 1010.12 1009.56 1008.99 1008.79 1008.88 1008.96 1009.23 1009.60 1009.88 1010.24 1010.50 1010.86 1011.34 1011.67 1012.13 1012.43 1012.45 1012.66 1012.96 1013.37 1013.72 1014.18 1014.33 1014.32 1014.49 1014.88 1015.32 1015.71 1016.07 1016.41 1016.75
1005.31 1007.27 1008.36 1009.66 1009.71 1010.10 1010.80 1011.10 1010.90 1010.21 1010.42 1010.83 1009.81 1008.92 1008.64 1008.45 1008.51 1008.43 1008.65 1009.00 1009.50 1009.80 1009.98 1010.18 1010.58 1010.87 1011.48 1011.80 1012.17 1012.42 1012.45 1012.64 1013.12 1013.53 1013.95 1014.30 1014.66 1015.06 1015.34 1015.58 1015.96 1016.43 1016.89 1017.10
1005.71 1007.18 1008.85 1010.79 1010.69 1011.10 1011.63 1009.18 1009.40 1009.45 1009.90 1008.99 1009.60 1006.92 1008.10 1008.33 1008.43 1008.41 1008.60 1008.94 1009.26 1009.62 1009.89 1010.02 1010.37 1010.72 1011.06 1011.62 1012.00 1012.53 1012.50 1012.61 1012.87 1013.26 1013.74 1014.20 1014.57 1015.04 1015.43 1015.66 1016.02 1016.55 1017.02 1017.46
1005.81 1007.10 1008.90 1011.67 1011.75 1011.57 1008.34 1007.78 1008.05 1008.33 1008.32 1008.20 1007.55 1007.60 1007.95 1008.29 1008.36 1008.24 1008.41 1008.83 1009.16 1009.55 1009.76 1010.36 1010.64 1010.81 1010.87 1011.00 1011.56 1012.21 1012.84 1013.51 1013.75 1013.76 1013.85 1013.88 1014.10 1014.45 1015.01 1015.52 1015.86 1016.26 1016.68 1017.02
1006.50 1007.49 1010.05 1011.75 1011.54 1009.82 1007.89 1006.95 1006.56 1007.19 1006.56 1006.81 1006.60 1007.41 1007.81 1008.46 1008.61 1007.97 1008.20 1008.58 1008.93 1009.54 1010.23 1010.81 1011.31 1011.75 1011.92 1011.96 1011.79 1011.84 1012.60 1013.55 1014.45 1015.18 1015.48 1015.07 1014.84 1014.97 1015.08 1014.96 1015.43 1015.91 1016.24 1016.63
1008.06 1008.11 1009.26 1010.96 1011.12 1009.54 1005.93 1005.21 1005.44 1006.89 1006.03 1005.46 1006.26 1006.65 1007.31 1008.39 1008.87 1007.26 1008.28 1008.75 1009.62 1010.22 1010.81 1011.39 1011.83 1012.18 1012.49 1012.82 1012.78 1013.10 1013.59 1013.75 1013.98 1014.35 1015.06 1015.65 1015.47 1015.50 1015.52 1015.28 1014.95 1015.18 1015.73 1016.42
1008.26 1009.03 1009.30 1009.93 1009.72 1007.72 1005.32 1004.58 1004.97 1006.69 1005.19 1004.11 1004.47 1005.22 1006.59 1007.59 1007.70 1008.77 1009.38 1010.28 1011.06 1011.83 1012.31 1012.42 1012.84 1013.48 1013.76 1013.65 1013.44 1013.76 1013.91 1014.15 1014.37 1014.33 1014.12 1014.88 1015.60 1015.91 1015.60 1015.72 1015.53 1015.27 1015.78 1016.27
1005.92 1007.28 1008.20 1008.93 1008.96 1006.79 1004.25 1004.50 1004.01 1004.36 1004.94 1004.92 1004.96 1005.85 1006.63 1007.24 1008.43 1009.53 1010.47 1011.36 1012.19 1012.92 1013.49 1013.59 1014.01 1014.50 1014.58 1014.27 1014.18 1014.51 1014.81 1014.84 1014.75 1014.60 1014.94 1015.11 1015.17 1015.73 1016.15 1016.04 1016.17 1016.03 1015.94 1016.17
1005.16 1004.00 1004.95 1005.72 1004.61 1004.28 1003.75 1003.39 1003.67 1004.05 1005.05 1005.71 1006.00 1006.73 1007.00 1007.76 1009.13 1010.44 1011.52 1012.14 1013.03 1014.15 1014.62 1014.71 1015.10 1015.45 1015.42 1015.28 1015.17 1015.30 1015.53 1015.33 1015.44 1015.41 1015.26 1015.50 1015.50 1015.49 1016.08 1016.36 1016.27 1016.39 1016.11 1016.38
1004.30 1003.96 1004.36 1004.89 1004.22 1004.32 1004.24 1004.36 1004.48 1004.87 1005.38 1005.99 1006.44 1006.98 1007.44 1008.41 1009.54 1010.93 1011.87 1013.02 1014.21 1014.97 1015.29 1015.70 1015.73 1015.93 1016.29 1016.23 1016.30 1016.49 1016.51 1015.91 1015.61 1015.73 1016.01 1015.99 1015.95 1015.85 1016.23 1016.26 1016.14 1016.12 1016.02 1016.12
1003.73 1004.26 1004.43 1004.92 1004.97 1004.71 1004.72 1004.83 1005.07 1005.55 1006.00 1006.91 1007.49 1007.87 1008.05 1009.09 1010.54 1011.53 1012.77 1014.02 1015.08 1015.54 1015.79 1016.26 1016.36 1016.67 1017.23 1017.21 1017.04 1017.16 1016.75 1016.43 1016.46 1016.28 1016.19 1016.52 1016.54 1016.47 1016.60 1016.61 1016.45 1016.08 1015.80 1015.78
1003.92 1003.97 1004.41 1003.67 1003.61 1003.29 1003.83 1004.38 1005.24 1006.03 1007.06 1007.76 1008.40 1009.18 1009.36 1009.89 1011.29 1012.61 1014.15 1014.79 1015.43 1015.81 1016.20 1016.63 1017.22 1017.79 1017.95 1017.91 1017.76 1017.84 1017.54 1017.27 1017.17 1016.60 1016.37 1016.38 1016.62 1016.89 1017.00 1017.00 1016.68 1016.15 1016.06 1016.16
Wind_Speed
5 6 14 18 14 5 16 12 10 12 9 7 13 12 13 10 8 8 8 7 9 12 10 10 11 11 11 10 10 14 15 13 11 10 10 8 8 5 4 4 7 8 7 7
6 16 12 13 14 13 9 14 10 8 6 4 7 14 13 12 11 10 11 9 9 8 10 12 10 10 12 13 12 11 14 14 13 10 8 5 5 4 4 4 6 7 8 8
14 6 11 13 15 13 15 13 9 6 5 3 4 7 10 9 13 12 11 9 10 10 10 10 13 14 12 13 14 13 15 16 13 12 7 4 3 3 4 5 5 7 8 8
6 9 19 15 15 10 5 2 7 11 7 2 6 7 7 14 19 18 17 13 13 11 8 11 16 14 16 18 14 16 16 14 13 13 11 13 10 10 9 8 6 7 10 10
8 15 17 18 15 11 2 9 10 7 5 4 5 3 6 1 13 19 18 17 14 13 12 11 14 18 18 15 15 13 14 16 15 16 14 11 11 8 8 7 9 10 9 11
8 8 10 6 6 10 13 14 11 7 4 3 7 6 5 5 5 4 7 16 18 13 11 11 10 15 15 14 14 14 15 16 16 16 17 16 16 12 9 10 9 9 9 10
9 13 5 14 15 11 3 9 4 2 2 6 1 6 13 7 8 1 6 6 7 12 10 10 10 9 11 15 16 14 16 17 16 16 17 19 16 15 14 13 11 12 10 9
9 5 9 15 10 12 16 3 6 8 6 3 2 8 6 6 6 5 7 7 2 6 7 10 10 8 9 11 13 13 13 16 15 16 17 16 18 12 12 13 11 9 10 11
14 5 13 19 9 15 6 4 3 7 2 4 6 6 7 12 7 6 6 1 2 3 4 4 5 6 6 7 9 12 13 11 11 14 14 15 15 17 15 15 12 10 11 9
9 10 3 11 11 2 7 8 5 1 6 5 5 4 6 4 6 6 6 8 7 6 5 3 2 5 5 7 7 6 7 8 9 8 11 13 15 15 16 13 14 13 10 10
14 8 3 5 7 11 6 6 4 6 4 5 0 5 4 7 5 3 7 5 5 5 3 2 3 3 3 1 3 6 7 8 8 8 7 8 10 11 10 11 9 7 6 9
4 8 8 8 3 4 4 8 4 5 5 3 4 7 5 7 6 5 6 5 5 6 4 1 1 2 4 4 4 5 4 6 6 5 6 5 4 4 6 6 6 4 5 5
11 6 10 4 6 3 10 11 13 4 4 6 7 6 7 8 5 5 8 5 5 5 5 3 2 3 4 4 5 5 6 5 4 3 4 3 4 3 5 5 4 6 6 6
8 6 6 12 6 12 8 12 12 6 3 3 9 5 3 6 7 6 5 5 7 6 5 3 4 4 4 5 5 5 6 6 6 6 7 7 7 7 6 6 6 6 7 7
6 6 7 8 12 16 24 27 19 19 21 13 18 14 10 8 9 9 7 2 4 6 4 5 3 3 4 5 6 6 6 6 5 5 5 5 4 3 1 1 2 3 4 4
4 5 6 5 9 12 15 18 23 27 23 21 12 15 4 9 5 1 2 1 4 5 4 5 3 4 5 6 7 6 7 7 6 7 7 5 4 3 3 5 5 4 4 5
11 7 5 2 6 8 2 27 25 22 18 26 16 18 4 6 6 5 4 6 8 5 6 7 7 5 4 5 5 6 7 6 7 7 6 6 6 6 6 5 5 4 4 3
11 7 4 4 5 4 9 18 19 25 24 27 23 13 7 7 9 7 8 9 8 9 8 5 4 3 2 3 2 1 2 3 3 3 5 6 7 7 6 6 6 5 4 6
5 6 6 8 4 5 7 14 21 15 18 22 28 18 15 7 4 11 8 7 9 1 4 4 3 4 6 6 4 5 5 3 3 5 6 5 5 4 6 7 7 5 5 5
4 3 4 4 7 14 3 13 13 10 20 16 17 18 17 9 11 16 10 6 6 8 6 5 3 3 6 5 5 5 3 3 2 2 4 6 5 3 5 5 6 4 4 4
13 14 14 3 4 9 7 11 11 12 10 6 17 17 10 10 12 4 7 7 6 5 6 6 7 6 5 5 4 5 4 4 2 1 2 1 2 3 2 2 2 4 4 5
13 13 10 4 2 16 9 7 21 7 1 4 5 5 7 7 8 7 8 7 7 7 7 7 7 6 6 6 5 6 7 5 3 3 3 2 2 0 1 3 1 2 4 5
6 9 10 14 9 3 4 7 3 4 7 6 7 5 6 9 7 8 7 8 8 6 5 4 5 5 6 7 6 6 4 3 3 5 3 2 2 2 2 3 3 2 3 3
2 6 5 6 7 7 8 2 4 3 5 5 5 6 7 8 10 8 8 7 6 3 3 2 4 7 7 6 7 5 5 4 4 5 4 3 2 2 1 0 1 3 4 4
6 11 7 2 2 5 2 5 8 7 7 7 5 3 7 11 8 8 7 7 6 4 3 3 5 7 7 5 7 5 5 4 3 4 3 3 2 1 1 2 3 2 2 3
3 6 9 8 13 7 6 7 8 9 8 9 8 5 5 7 10 9 6 5 5 6 4 7 8 6 4 5 7 8 8 6 4 4 3 3 2 1 1 2 4 5 7 7
Wind_Direction
178 190 201 189 191 172 175 190 183 199 175 153 219 235 235 228 175 203 233 258 195 183 188 184 183 184 192 176 182 181 179 188 180 190 194 197 199 178 192 177 183 183 177 177
139 218 190 186 197 214 225 188 204 87 145 177 224 240 236 230 237 209 200 215 244 195 180 180 171 186 194 190 188 180 181 187 190 190 191 192 178 180 192 183 192 190 173 172
192 180 187 178 199 215 209 205 190 130 145 270 340 269 245 242 222 233 230 192 204 210 192 174 177 191 194 196 192 192 194 194 195 187 185 177 170 171 187 199 203 193 174 176
213 170 175 188 205 183 192 3 91 118 153 223 168 287 226 219 221 219 223 213 205 209 203 178 178 185 195 201 195 196 195 192 194 191 191 196 194 198 197 198 194 194 186 193
163 172 175 182 192 189 179 99 96 94 84 5 182 277 254 303 211 219 218 225 221 212 201 197 184 190 197 192 199 194 195 198 196 194 199 194 200 205 197 187 193 193 197 204
157 164 171 161 93 112 152 99 71 62 78 259 196 181 263 225 219 228 197 215 218 211 210 208 195 190 194 186 192 197 202 206 198 196 198 202 204 200 201 199 199 196 202 203
125 171 116 136 97 137 311 159 88 100 181 224 105 212 246 277 283 291 288 276 239 204 203 197 201 189 189 190 194 195 200 208 206 200 199 205 208 204 205 203 202 194 198 199
146 196 176 175 162 166 187 239 145 182 184 188 313 235 244 254 259 253 265 237 335 356 210 189 202 201 190 192 196 197 204 212 207 206 209 206 208 209 209 209 207 200 198 199
164 118 168 183 128 146 184 188 79 107 37 66 204 263 290 264 272 248 257 238 244 322 341 139 167 198 195 193 203 200 202 210 212 214 213 215 210 212 214 211 209 208 199 187
142 111 198 173 128 236 164 142 90 310 138 228 243 241 229 231 248 233 208 222 202 223 238 194 172 205 204 200 209 214 210 213 220 218 219 219 216 213 217 216 213 209 202 179
132 110 160 117 207 173 151 177 187 142 169 168 228 258 228 188 163 134 155 126 123 94 69 79 114 107 113 82 204 209 212 217 216 220 228 224 226 227 219 219 219 204 168 166
113 110 147 179 35 187 234 165 165 160 224 221 133 271 184 158 168 138 125 129 116 102 111 122 144 200 210 217 229 227 228 224 232 231 225 239 244 221 213 208 201 168 171 178
160 138 115 163 342 229 208 190 193 105 86 203 146 247 196 138 164 170 158 91 138 156 140 157 173 218 227 216 212 213 217 225 216 200 190 217 230 233 213 198 173 169 162 167
105 152 148 186 139 119 171 191 198 206 151 156 232 215 158 166 177 154 166 161 161 191 172 201 242 226 210 201 203 214 213 191 187 173 185 201 211 209 200 186 175 178 175 173
124 134 140 144 150 162 180 180 179 197 215 190 234 221 224 201 190 172 166 171 330 297 240 241 226 231 216 208 212 209 201 183 183 189 216 229 222 216 223 54 126 137 158 186
179 135 114 19 151 160 175 183 191 204 207 228 239 265 185 218 227 273 130 74 250 248 257 284 230 236 229 221 218 213 202 190 174 191 210 199 177 145 140 147 153 167 178 181
175 129 122 123 101 99 5 199 196 212 206 222 221 226 162 205 241 212 236 249 255 254 226 229 209 211 209 218 218 226 213 191 192 199 190 176 159 168 183 175 164 182 186 162
145 103 82 139 117 168 236 171 197 207 211 221 237 229 208 206 228 222 208 221 242 226 236 212 160 165 137 142 152 242 331 289 260 231 196 181 183 192 175 170 181 178 169 183
47 93 102 141 195 283 241 199 192 180 233 221 231 236 239 237 284 259 214 220 231 192 110 109 59 12 0 29 43 113 103 83 24 311 286 253 212 184 181 180 180 175 166 171
163 229 98 149 152 209 240 173 158 166 262 197 215 226 219 174 216 247 193 209 129 121 119 112 82 71 67 15 32 64 65 102 163 235 271 271 243 202 214 200 169 153 150 171
163 184 200 188 208 265 231 153 117 148 239 205 203 218 200 191 219 139 111 76 85 68 57 53 60 63 34 9 35 76 88 59 340 297 162 185 279 264 217 167 174 139 135 137
165 157 189 134 139 251 177 148 169 171 135 117 96 144 158 134 113 117 109 104 94 76 42 37 68 52 26 21 50 68 53 356 8 65 73 102 140 265 209 137 59 124 147 156
185 188 165 187 198 224 187 179 127 119 145 162 130 143 131 125 137 142 131 102 80 82 66 52 89 79 36 26 31 63 348 6 46 47 69 72 112 133 193 153 152 139 142 158
235 184 157 94 216 184 181 90 127 150 130 142 130 149 140 131 134 116 111 115 111 88 72 46 88 66 50 28 36 30 346 359 61 68 38 41 82 96 157 206 161 171 177 181
186 148 163 235 42 71 14 196 179 157 119 110 79 122 132 126 130 126 118 115 120 119 76 59 79 66 43 19 35 7 6 6 44 56 63 37 9 38 255 253 212 214 249 189
191 168 178 220 182 162 188 192 142 138 160 155 139 113 75 107 125 116 113 109 110 94 73 69 56 70 49 46 39 13 2 10 8 42 41 44 32 14 339 307 307 267 245 261